This is the latest recevied weather packets stored in our database for station/object K2CCS. If no packets are shown the sender has not sent any weather packets the latest 10 day(s).
| Time | Temp. | Humidity | Pressure | Rain* | Wind** | Luminosity | Snow |
|---|---|---|---|---|---|---|---|
| 1777719910 | 7.22° C | 92% | 1016.1 hPa | 0 mm | - | 30 W/m² | - |
| 1777719608 | 7.22° C | 92% | 1016 hPa | 0 mm | - | 43 W/m² | - |
| 1777719305 | 7.22° C | 92% | 1015.8 hPa | 0 mm | - | 39 W/m² | - |
| 1777719002 | 7.22° C | 93% | 1016 hPa | 0 mm | - | 28 W/m² | - |
| 1777718699 | 7.22° C | 93% | 1015.8 hPa | 0 mm | - | 14 W/m² | - |
| 1777718396 | 7.22° C | 93% | 1015.7 hPa | 0 mm | - | 10 W/m² | - |
| 1777718094 | 7.22° C | 93% | 1015.6 hPa | 0 mm | - | 9 W/m² | - |
| 1777717791 | 7.22° C | 93% | 1015.9 hPa | 0 mm | - | 6 W/m² | - |
| 1777717488 | 7.22° C | 93% | 1015.8 hPa | 0 mm | - | 6 W/m² | - |
| 1777717185 | 7.22° C | 93% | 1015.5 hPa | 0 mm | - | 6 W/m² | - |
| 1777716883 | 7.22° C | 93% | 1015.6 hPa | 0 mm | - | 4 W/m² | - |
| 1777716581 | 7.22° C | 93% | 1015.9 hPa | 0 mm | - | 2 W/m² | - |
| 1777716280 | 7.22° C | 93% | 1015.5 hPa | 0 mm | - | 3 W/m² | - |
| 1777715977 | 7.78° C | 93% | 1015.6 hPa | 0 mm | - | 0 W/m² | - |
| 1777715674 | 7.22° C | 93% | 1015.6 hPa | 0 mm | - | 0 W/m² | - |
| 1777715372 | 7.22° C | 93% | 1015.6 hPa | 0 mm | - | 0 W/m² | - |
| 1777715069 | 7.22° C | 93% | 1015.6 hPa | 0 mm | - | 0 W/m² | - |
| 1777714767 | 7.22° C | 93% | 1015.6 hPa | 0 mm | - | 0 W/m² | - |
| 1777714466 | 7.22° C | 93% | 1015.3 hPa | 0 mm | - | 0 W/m² | - |
| 1777714163 | 7.22° C | 93% | 1015.5 hPa | 0 mm | - | 0 W/m² | - |
| 1777713861 | 7.22° C | 92% | 1015.5 hPa | 0 mm | - | 0 W/m² | - |
| 1777713558 | 7.22° C | 92% | 1015.6 hPa | 0 mm | - | 0 W/m² | - |
| 1777713254 | 7.22° C | 92% | 1015.8 hPa | 0 mm | - | 0 W/m² | - |
| 1777712951 | 7.22° C | 92% | 1015.7 hPa | 0 mm | - | 0 W/m² | - |
| 1777712649 | 7.22° C | 92% | 1015.4 hPa | 0 mm | - | 0 W/m² | - |
* Rain latest hour (hover to see other rain measurements)
** Current wind speed in m/s (hover to see current wind gust speed)